G7UKK-10 Weather Reports


Display with metric or nautical units.
time (UTC)temp
F
wind
direction
speed
MPH
gust
MPH
rain 1hr
in
rain 24hr
in
rain mn
in
humidity
%
barometer
mb
20260508081016 53 0 0.0 0.0 0.00 0.00 0.00 80 1018.5
20260508075516 52 0 0.0 0.0 0.00 0.00 0.00 79 1018.3
20260508074016 51 0 0.0 0.0 0.00 0.00 0.00 79 1018.2
20260508072516 51 194 1.0 3.0 0.00 0.00 0.00 80 1018.4
20260508071016 50 0 0.0 0.0 0.00 0.00 0.00 82 1018.1
20260508065516 49 0 0.0 0.0 0.00 0.00 0.00 82 1017.8
20260508064016 49 0 0.0 0.0 0.00 0.00 0.00 82 1017.9
20260508062516 49 0 0.0 0.0 0.00 0.00 0.00 83 1018.0
20260508061016 48 0 0.0 0.0 0.00 0.00 0.00 83 1017.8
20260508055516 48 0 0.0 0.0 0.00 0.00 0.00 84 1017.6
20260508054016 47 0 0.0 0.0 0.00 0.00 0.00 85 1017.6
20260508052516 47 0 0.0 0.0 0.00 0.00 0.00 85 1017.3
20260508051016 46 0 0.0 0.0 0.00 0.00 0.00 85 1017.4
20260508045516 46 0 0.0 0.0 0.00 0.00 0.00 85 1017.3
20260508044016 46 0 0.0 0.0 0.00 0.00 0.00 85 1017.4
20260508042516 46 0 0.0 0.0 0.00 0.00 0.00 85 1017.4
20260508041016 46 0 0.0 0.0 0.00 0.00 0.00 83 1017.3
20260508035516 47 0 0.0 0.0 0.00 0.00 0.00 82 1017.3
20260508034016 47 0 0.0 0.0 0.00 0.00 0.00 82 1017.5
20260508032516 47 0 0.0 0.0 0.00 0.00 0.00 82 1017.3
20260508031016 46 0 0.0 0.0 0.00 0.00 0.00 85 1016.8
20260508025516 46 0 0.0 0.0 0.00 0.00 0.00 85 1017.2
20260508024016 46 0 0.0 0.0 0.00 0.00 0.00 85 1017.1
20260508022516 47 0 0.0 0.0 0.00 0.00 0.00 85 1017.1
20260508021016 47 0 0.0 0.0 0.00 0.00 0.00 84 1016.9
20260508015516 47 0 0.0 0.0 0.00 0.00 0.00 83 1016.9
20260508014016 48 0 0.0 0.0 0.00 0.00 0.00 83 1017.0
20260508012516 49 176 3.0 3.0 0.00 0.00 0.00 80 1017.1
20260508011016 49 176 3.0 3.0 0.00 0.00 0.00 80 1017.1
20260508005516 50 0 0.0 0.0 0.00 0.00 0.00 79 1016.8
20260508004016 50 194 1.0 1.0 0.00 0.00 0.00 79 1017.0
20260508002516 50 0 0.0 0.0 0.00 0.00 0.00 79 1017.1
20260508001016 50 0 0.0 0.0 0.00 0.00 0.00 79 1016.9
20260507235516 50 164 4.0 6.0 0.00 0.00 0.00 78 1017.2
20260507234016 51 182 4.0 4.0 0.00 0.00 0.00 78 1017.3
20260507232516 50 182 2.0 2.0 0.00 0.00 0.00 78 1017.1
20260507231016 50 168 1.0 1.0 0.00 0.00 0.00 77 1017.3
20260507225516 51 177 2.0 2.0 0.00 0.00 0.00 77 1017.3
20260507224016 51 175 2.0 2.0 0.00 0.00 0.00 75 1017.0
20260507222516 51 0 0.0 0.0 0.00 0.00 0.00 74 1017.0
20260507221016 51 0 0.0 0.0 0.00 0.00 0.00 74 1017.0
20260507215516 51 186 5.0 7.0 0.00 0.00 0.00 73 1017.0
20260507214016 52 179 4.0 4.0 0.00 0.00 0.00 73 1017.1
20260507212516 52 177 4.0 6.0 0.00 0.00 0.00 72 1017.2
20260507211016 52 164 4.0 4.0 0.00 0.00 0.00 71 1016.9
20260507205516 52 183 4.0 6.0 0.00 0.00 0.00 71 1016.8
20260507204016 52 174 4.0 4.0 0.00 0.00 0.00 70 1016.7
20260507202516 53 180 3.0 4.0 0.00 0.00 0.00 69 1016.6
20260507201016 53 166 1.0 3.0 0.00 0.00 0.00 67 1016.6
20260507195516 53 180 4.0 6.0 0.00 0.00 0.00 66 1016.3
20260507194016 53 165 4.0 4.0 0.00 0.00 0.00 66 1016.0
20260507192516 54 169 2.0 3.0 0.00 0.00 0.00 66 1016.2
20260507191016 54 176 4.0 4.0 0.00 0.00 0.00 66 1016.0
20260507185516 54 164 3.0 4.0 0.00 0.00 0.00 65 1016.3
20260507184016 54 180 4.0 6.0 0.00 0.00 0.00 64 1015.9
20260507182516 55 165 3.0 6.0 0.00 0.00 0.00 63 1016.0
20260507181016 55 145 2.0 3.0 0.00 0.00 0.00 63 1015.9
20260507175516 55 199 3.0 6.0 0.00 0.00 0.00 63 1015.7
20260507174016 56 182 5.0 8.0 0.00 0.00 0.00 60 1015.9
20260507172516 56 180 6.0 8.0 0.00 0.00 0.00 60 1016.0
20260507171016 56 144 4.0 7.0 0.00 0.00 0.00 60 1015.9
20260507165516 56 166 3.0 6.0 0.00 0.00 0.00 60 1015.9
20260507164017 56 179 7.0 8.0 0.00 0.00 0.00 59 1016.0
20260507162517 56 142 3.0 6.0 0.00 0.00 0.00 59 1015.9
20260507161017 56 139 3.0 4.0 0.00 0.00 0.00 62 1016.1
20260507155517 55 140 2.0 3.0 0.00 0.00 0.00 64 1016.1
20260507154017 55 164 2.0 3.0 0.00 0.00 0.00 65 1016.3
20260507152517 54 183 4.0 6.0 0.00 0.00 0.00 65 1016.5
20260507151017 54 172 4.0 7.0 0.00 0.00 0.00 66 1016.4
20260507145517 54 172 5.0 7.0 0.00 0.00 0.00 65 1016.7
20260507144017 54 176 4.0 4.0 0.00 0.00 0.00 65 1016.6
20260507142517 54 162 5.0 7.0 0.00 0.00 0.00 67 1016.7
20260507141017 54 174 3.0 4.0 0.00 0.00 0.00 66 1017.0
20260507135517 54 178 4.0 4.0 0.00 0.00 0.00 65 1016.9
20260507134017 54 192 6.0 8.0 0.00 0.00 0.00 64 1016.8
20260507132517 55 165 5.0 6.0 0.00 0.00 0.00 63 1016.9
20260507131017 55 141 5.0 7.0 0.00 0.00 0.00 64 1016.8
20260507125517 55 132 6.0 7.0 0.00 0.00 0.00 65 1016.8
20260507124017 55 184 3.0 6.0 0.00 0.00 0.00 67 1016.8
20260507122517 54 166 5.0 8.0 0.00 0.00 0.00 68 1017.2
20260507121017 54 174 4.0 7.0 0.00 0.00 0.00 70 1017.3
20260507115517 54 182 1.0 1.0 0.00 0.00 0.00 71 1017.2
20260507114017 52 124 3.0 6.0 0.00 0.00 0.00 74 1017.3
20260507112517 50 124 4.0 8.0 0.00 0.00 0.00 77 1017.6
20260507111017 50 106 5.0 8.0 0.00 0.00 0.00 78 1017.4
20260507105517 49 172 5.0 7.0 0.00 0.00 0.00 79 1017.7
20260507104017 49 164 4.0 6.0 0.00 0.00 0.00 79 1017.6
20260507102517 48 172 4.0 7.0 0.00 0.00 0.00 80 1017.6
20260507101017 48 171 4.0 4.0 0.00 0.00 0.00 80 1017.8
20260507095517 48 184 4.0 6.0 0.00 0.00 0.00 79 1017.7
20260507094017 47 185 6.0 8.0 0.00 0.00 0.00 80 1017.7
20260507092517 47 187 6.0 8.0 0.00 0.00 0.00 80 1017.8
20260507091017 47 159 6.0 7.0 0.00 0.00 0.00 82 1017.6
20260507085517 46 173 5.0 7.0 0.00 0.00 0.00 82 1017.7
20260507084017 46 169 5.0 7.0 0.00 0.00 0.00 83 1017.6
20260507082517 46 169 5.0 6.0 0.00 0.00 0.00 83 1017.7